Glendive, MT

6:57 PM MST on December 02, 2016 (GMT -0700)
Dawson Community

Weather History for KGDV - November, 2011

Change the Weather History Date:

Friday, November 18, 2011

  Actual Average Record
Temperature  
Mean Temperature 20 °F -  
Max Temperature 35 °F 37 °F 69 °F (2008)
Min Temperature 5 °F 18 °F -5 °F (2014)
Degree Days  
Heating Degree Days 44    
Moisture  
Dew Point 9 °F    
Average Humidity 60    
Maximum Humidity 80    
Minimum Humidity 38    
Precipitation  
Precipitation 0.00 in - - ()
Sea Level Pressure  
Sea Level Pressure 29.73 in    
Wind  
Wind Speed 13 mph (NW)    
Max Wind Speed 23 mph    
Max Gust Speed 31 mph    
Visibility 10 miles    
Events      
Averages and records for this station are not official NWS values.
T = Trace of Precipitation, MM = Missing Value Source: NWS Daily Summary

Daily Weather History Graph

Daily Weather History Graph

Search for Another Location

Airport or City:

Trip Planner

Search our weather history database for the weather conditions in past years. The results will help you decide how hot, cold, wet, or windy it might be!

Date:

Astronomy

Nov. 18, 2011 Rise Set
Actual Time 7:07 AM MST 4:21 PM MST
Civil Twilight 6:33 AM MST 4:54 PM MST
Nautical Twilight 5:56 AM MST 5:32 PM MST
Astronomical Twilight 5:20 AM MST 6:08 PM MST
Moon No Moon Rise 12:35 PM MST (11/18)
Length of Visible Light 10h 21m
Length of Day
9h 14m
Waning Gibbous, 48% of the Moon is Illuminated
Nov 18
Waning Gibbous
Nov 24
New
Dec 2
First Quarter
Dec 10
Full
Dec 17
Last Quarter

Hourly Weather History & Observations

Time (MST) Temp. Windchill Dew Point Humidity Pressure Visibility Wind Dir Wind Speed Gust Speed Precip Events Conditions
12:15 AM 35.6 °F 28.0 °F 14.0 °F 41% 29.58 in 10.0 mi West 10.4 mph - N/A   Overcast
12:35 AM 35.6 °F 28.6 °F 14.0 °F 41% 29.58 in 10.0 mi West 9.2 mph - N/A   Overcast
12:55 AM 35.6 °F 29.2 °F 12.2 °F 38% 29.59 in 10.0 mi West 8.1 mph - N/A   Mostly Cloudy
1:35 AM 33.8 °F 27.0 °F 12.2 °F 41% 29.60 in 10.0 mi West 8.1 mph - N/A   Mostly Cloudy
1:55 AM 33.8 °F 27.0 °F 12.2 °F 41% 29.59 in 10.0 mi West 8.1 mph - N/A   Scattered Clouds
2:15 AM 32.0 °F 24.2 °F 12.2 °F 44% 29.60 in 10.0 mi WNW 9.2 mph - N/A   Clear
2:35 AM 32.0 °F 24.8 °F 12.2 °F 44% 29.61 in 10.0 mi WNW 8.1 mph - N/A   Partly Cloudy
2:55 AM 32.0 °F 24.8 °F 14.0 °F 48% 29.60 in 10.0 mi WNW 8.1 mph - N/A   Partly Cloudy
3:15 AM 30.2 °F 22.6 °F 14.0 °F 51% 29.60 in 10.0 mi WNW 8.1 mph - N/A   Mostly Cloudy
3:35 AM 30.2 °F 21.3 °F 14.0 °F 51% 29.60 in 10.0 mi West 10.4 mph - N/A   Mostly Cloudy
3:55 AM 30.2 °F 20.2 °F 14.0 °F 51% 29.60 in 10.0 mi West 12.7 mph - N/A   Scattered Clouds
4:15 AM 30.2 °F 20.2 °F 14.0 °F 51% 29.61 in 10.0 mi WNW 12.7 mph - N/A   Mostly Cloudy
4:36 AM 33.8 °F 23.5 °F 17.6 °F 52% 29.62 in 10.0 mi WNW 16.1 mph 19.6 mph N/A   Partly Cloudy
4:55 AM 32.0 °F 21.6 °F 17.6 °F 55% 29.62 in 10.0 mi WNW 15.0 mph 24.2 mph N/A   Clear
5:35 AM 30.2 °F 18.9 °F 17.6 °F 60% 29.62 in 10.0 mi NW 16.1 mph - N/A   Clear
5:55 AM 28.4 °F 16.6 °F 19.4 °F 69% 29.62 in 10.0 mi NW 16.1 mph 21.9 mph N/A   Clear
6:15 AM 26.6 °F 13.4 °F 19.4 °F 74% 29.64 in 10.0 mi NW 18.4 mph 23.0 mph N/A   Clear
6:35 AM 26.6 °F 12.7 °F 19.4 °F 74% 29.65 in 10.0 mi NW 20.7 mph 25.3 mph N/A   Clear
6:55 AM 24.8 °F 9.6 °F 17.6 °F 74% 29.65 in 10.0 mi NW 23.0 mph 31.1 mph N/A   Mostly Cloudy
7:15 AM 21.2 °F 5.2 °F 15.8 °F 80% 29.66 in 10.0 mi NW 21.9 mph 26.5 mph N/A   Mostly Cloudy
7:35 AM 21.2 °F 4.9 °F 15.8 °F 80% 29.67 in 10.0 mi NW 23.0 mph 31.1 mph N/A   Clear
7:55 AM 19.4 °F 2.8 °F 14.0 °F 80% 29.69 in 10.0 mi NW 21.9 mph 29.9 mph N/A   Clear
8:15 AM 19.4 °F 4.5 °F 14.0 °F 80% 29.71 in 10.0 mi NW 17.3 mph 21.9 mph N/A   Clear
8:35 AM 21.2 °F 6.4 °F 12.2 °F 68% 29.72 in 10.0 mi NW 18.4 mph 25.3 mph N/A   Clear
8:55 AM 21.2 °F 8.3 °F 10.4 °F 63% 29.73 in 10.0 mi NW 13.8 mph 27.6 mph N/A   Clear
9:15 AM 21.2 °F 8.9 °F 12.2 °F 68% 29.75 in 10.0 mi NW 12.7 mph 24.2 mph N/A   Clear
9:35 AM 23.0 °F 9.2 °F 12.2 °F 63% 29.75 in 10.0 mi NW 17.3 mph 24.2 mph N/A   Scattered Clouds
9:56 AM 21.2 °F 6.8 °F 12.2 °F 68% 29.75 in 10.0 mi NW 17.3 mph 24.2 mph N/A   Clear
10:15 AM 21.2 °F 7.3 °F 10.4 °F 63% 29.76 in 10.0 mi NW 16.1 mph 20.7 mph N/A   Scattered Clouds
10:35 AM 21.2 °F 6.8 °F 10.4 °F 63% 29.76 in 10.0 mi NNW 17.3 mph 20.7 mph N/A   Overcast
11:15 AM 19.4 °F 3.6 °F 8.6 °F 63% 29.76 in 10.0 mi NW 19.6 mph - N/A   Partly Cloudy
11:35 AM 21.2 °F 7.8 °F 8.6 °F 58% 29.76 in 10.0 mi NW 15.0 mph 19.6 mph N/A   Mostly Cloudy
11:55 AM 21.2 °F 5.6 °F 8.6 °F 58% 29.75 in 10.0 mi NW 20.7 mph 26.5 mph N/A   Partly Cloudy
12:35 PM 21.2 °F 7.3 °F 8.6 °F 58% 29.77 in 10.0 mi NW 16.1 mph 21.9 mph N/A   Mostly Cloudy
12:55 PM 19.4 °F 4.1 °F 6.8 °F 58% 29.76 in 10.0 mi NW 18.4 mph 25.3 mph N/A   Scattered Clouds
1:15 PM 19.4 °F 6.0 °F 8.6 °F 63% 29.77 in 10.0 mi NW 13.8 mph 23.0 mph N/A   Partly Cloudy
1:35 PM 19.4 °F 5.0 °F 6.8 °F 58% 29.78 in 10.0 mi NNW 16.1 mph - N/A   Scattered Clouds
1:55 PM 19.4 °F 5.5 °F 6.8 °F 58% 29.78 in 10.0 mi NNW 15.0 mph 19.6 mph N/A   Clear
2:15 PM 19.4 °F 5.5 °F 3.2 °F 49% 29.79 in 10.0 mi NNW 15.0 mph - N/A   Clear
2:35 PM 19.4 °F 6.0 °F 6.8 °F 58% 29.80 in 10.0 mi NNW 13.8 mph 20.7 mph N/A   Clear
2:55 PM 19.4 °F 6.0 °F 3.2 °F 49% 29.80 in 10.0 mi NNW 13.8 mph - N/A   Clear
3:15 PM 17.6 °F 2.7 °F 3.2 °F 53% 29.80 in 10.0 mi NNW 16.1 mph - N/A   Clear
3:35 PM 17.6 °F 5.7 °F 3.2 °F 53% 29.82 in 10.0 mi NNW 10.4 mph - N/A   Clear
3:55 PM 15.8 °F 0.9 °F 1.4 °F 53% 29.84 in 10.0 mi North 15.0 mph - N/A   Clear
4:15 PM 15.8 °F 0.9 °F 1.4 °F 53% 29.84 in 10.0 mi North 15.0 mph - N/A   Clear
4:35 PM 12.2 °F -2.5 °F -0.4 °F 57% 29.85 in 10.0 mi North 12.7 mph - N/A   Clear
4:55 PM 12.2 °F 0.7 °F -0.4 °F 57% 29.86 in 10.0 mi North 8.1 mph - N/A   Clear
5:15 PM 10.4 °F -4.8 °F 1.4 °F 67% 29.87 in 10.0 mi North 12.7 mph - N/A   Clear
5:35 PM 10.4 °F -4.1 °F -0.4 °F 62% 29.87 in 10.0 mi North 11.5 mph - N/A   Clear
5:55 PM 10.4 °F -4.8 °F -0.4 °F 62% 29.87 in 10.0 mi North 12.7 mph - N/A   Clear
6:15 PM 8.6 °F -7.0 °F 1.4 °F 73% 29.88 in 10.0 mi North 12.7 mph - N/A   Clear
6:35 PM 8.6 °F 0.1 °F -0.4 °F 67% 29.90 in 10.0 mi North 4.6 mph - N/A   Clear
6:55 PM 6.8 °F -4.8 °F 1.4 °F 79% 29.91 in 10.0 mi North 6.9 mph - N/A   Clear
7:16 PM 6.8 °F -4.8 °F -0.4 °F 72% 29.91 in 10.0 mi North 6.9 mph - N/A   Clear
7:35 PM 6.8 °F -5.9 °F -2.2 °F 67% 29.91 in 10.0 mi North 8.1 mph - N/A   Clear
7:55 PM 5.0 °F -6.9 °F -0.4 °F 78% 29.91 in 10.0 mi North 6.9 mph - N/A   Clear
8:16 PM 3.2 °F -10.3 °F -0.4 °F 85% 29.90 in 10.0 mi North 8.1 mph - N/A   Clear
8:35 PM 5.0 °F -10.0 °F 1.4 °F 85% 29.91 in 10.0 mi North 10.4 mph - N/A   Clear
8:55 PM 5.0 °F -9.1 °F -0.4 °F 78% 29.91 in 10.0 mi North 9.2 mph - N/A   Clear
9:15 PM 3.2 °F -11.3 °F -0.4 °F 85% 29.92 in 10.0 mi North 9.2 mph - N/A   Clear
9:35 PM 3.2 °F -13.1 °F -0.4 °F 85% 29.92 in 10.0 mi North 11.5 mph - N/A   Partly Cloudy
9:55 PM 3.2 °F -11.3 °F -0.4 °F 85% 29.92 in 10.0 mi North 9.2 mph - N/A   Mostly Cloudy
10:55 PM 3.2 °F -13.9 °F -2.2 °F 78% 29.92 in 10.0 mi North 12.7 mph - N/A   Overcast
11:15 PM 3.2 °F -14.6 °F -0.4 °F 85% 29.92 in 10.0 mi North 13.8 mph - N/A   Overcast
11:35 PM 3.2 °F -17.1 °F -2.2 °F 78% 29.91 in 10.0 mi NNE 18.4 mph - N/A   Overcast